This is the latest recevied weather packets stored in our database for station/object KC9GSD. If no packets are shown the sender has not sent any weather packets the latest 10 day(s).
| Time | Temp. | Humidity | Pressure | Rain* | Wind** | Luminosity | Snow |
|---|---|---|---|---|---|---|---|
| 1777668256 | 18.33° C | 56% | 1013.2 hPa | 0 mm | - | 287 W/m² | - |
| 1777667953 | 18.33° C | 57% | 1013.2 hPa | 0 mm | - | 297 W/m² | - |
| 1777667650 | 18.33° C | 54% | 1013.5 hPa | 0 mm | - | 299 W/m² | - |
| 1777667348 | 17.78° C | 58% | 1013.5 hPa | 0 mm | - | 267 W/m² | - |
| 1777667044 | 18.33° C | 53% | 1013.5 hPa | 0 mm | - | 318 W/m² | - |
| 1777666741 | 18.33° C | 52% | 1013.7 hPa | 0 mm | - | 365 W/m² | - |
| 1777666438 | 18.33° C | 51% | 1013.7 hPa | 0 mm | - | 316 W/m² | - |
| 1777666134 | 18.33° C | 55% | 1014 hPa | 0 mm | - | 362 W/m² | - |
| 1777665831 | 17.78° C | 50% | 1014.2 hPa | 0 mm | - | 305 W/m² | - |
| 1777665529 | 18.33° C | 53% | 1014.2 hPa | 0 mm | - | 287 W/m² | - |
| 1777665224 | 18.89° C | 54% | 1014.4 hPa | 0 mm | - | 335 W/m² | - |
| 1777664921 | 18.89° C | 57% | 1014.5 hPa | 0 mm | - | 383 W/m² | - |
| 1777664617 | 18.33° C | 54% | 1014.5 hPa | 0 mm | - | 464 W/m² | - |
| 1777664313 | 18.33° C | 53% | 1014.5 hPa | 0 mm | - | 422 W/m² | - |
| 1777664012 | 18.33° C | 52% | 1014.5 hPa | 0 mm | - | 418 W/m² | - |
| 1777663709 | 18.33° C | 53% | 1014.8 hPa | 0 mm | - | 434 W/m² | - |
| 1777663406 | 17.78° C | 55% | 1014.5 hPa | 0 mm | - | 403 W/m² | - |
| 1777663103 | 18.33° C | 51% | 1014.5 hPa | 0 mm | - | 386 W/m² | - |
| 1777662801 | 17.78° C | 55% | 1014.7 hPa | 0 mm | - | 409 W/m² | - |
| 1777662497 | 17.78° C | 50% | 1014.6 hPa | 0 mm | - | 329 W/m² | - |
| 1777662193 | 17.22° C | 52% | 1014.4 hPa | 0 mm | - | 270 W/m² | - |
| 1777661888 | 17.78° C | 54% | 1014.1 hPa | 0 mm | - | 254 W/m² | - |
| 1777661585 | 17.78° C | 52% | 1014.2 hPa | 0 mm | - | 255 W/m² | - |
| 1777661280 | 17.78° C | 49% | 1014.2 hPa | 0 mm | - | 252 W/m² | - |
| 1777660976 | 17.78° C | 49% | 1014.3 hPa | 0 mm | - | 312 W/m² | - |
* Rain latest hour (hover to see other rain measurements)
** Current wind speed in m/s (hover to see current wind gust speed)